Location: Ç?ral? Körfezi
(36.3984°N, 30.4829°E)
Time: 02:36:47
(UTC+00:00)

OAO 1 Rocket - Pass Details

Date: 04 August 2024
Orbit: 739 x 751 km, 35.0° (Epoch: 10 September)

Event Time Altitude Azimuth Distance (km) Brightness Sun altitude
Rises 18:34:27 0° 272° (W) 3,174 8.6 -17.3°
Reaches altitude 10° 18:36:54 10° 270° (W) 2,253 7.7 -17.6°
Maximum altitude 18:42:12 75° 186° (S) 772 4.4 -18.5°
Enters shadow 18:44:32 34° 107° (ESE) 1,209 5.0 -18.8°
